Hourly Data Report for June 16, 2021

LONDON CS
ONTARIO
Current Station Operator: ECCC - MSC

43°02'00.000" N
81°09'00.000" W
278.00 m
6144478
71622
WSN

Download Data

Hourly Data (June 2021)
Hourly Data Report for June 16, 2021
TIME
LST
Temp Definition
°C
Dew Point Definition
°C
Rel Hum Definition
%
Precip. Amount Definition
mm

Wind Dir Definition
10's deg

Wind Spd Definition
km/h
Visibility Definition
km
Stn Press Definition
kPa
Hmdx Definition


Wind Chill Definition


Weather Definition


00:00 12.0 6.4 68 0.0       98.39     LegendNANA
01:00 10.8 6.1 73 0.0       98.40     LegendNANA
02:00 10.1 6.1 77 0.0       98.44     LegendNANA
03:00 9.6 6.1 79 0.0       98.46     LegendNANA
04:00 9.1 6.0 81 0.0       98.49     LegendNANA
05:00 8.5 5.9 84 0.0       98.55     LegendNANA
06:00 9.9 6.3 78 0.0       98.58     LegendNANA
07:00 12.9 6.0 63 0.0       98.59     LegendNANA
08:00 14.8 4.1 49 0.0       98.59     LegendNANA
09:00 16.4 4.1 44 0.0       98.64     LegendNANA
10:00 17.3 2.5 37 0.0       98.64     LegendNANA
11:00 19.0 3.9 37 0.0       98.60     LegendNANA
12:00 19.8 2.4 32 0.0       98.59     LegendNANA
13:00 19.8 3.6 34 0.0       98.58     LegendNANA
14:00 20.1 3.0 32 0.0       98.54     LegendNANA
15:00 20.1 2.4 31 0.0       98.50     LegendNANA
16:00 19.4 2.0 31 0.0       98.48     LegendNANA
17:00 19.0 1.5 31 0.0       98.50     LegendNANA
18:00 18.3 1.6 33 0.0       98.44     LegendNANA
19:00 17.7 -1.9 26 0.0       98.46     LegendNANA
20:00 15.6 -0.9 32 0.0       98.43     LegendNANA
21:00 11.8 0.6 46 0.0       98.46     LegendNANA
22:00 10.4 0.5 50 0.0       98.46     LegendNANA
23:00 10.2 2.0 57 0.0       98.48     LegendNANA

Notes on Data Quality.

Legend

  • E = Estimated
  • M = Missing
  • NA = Not Available*
  • [empty] = Indicates an unobserved value
Date modified: